Location: Castellare
(42.4669°N, 9.4728°E)
Time: 09:19:07
(UTC+00:00)

DMSP B5D1-3 - Pass Details

Date: 17 February 2020
Orbit: 768 x 780 km, 98.5° (Epoch: 27 March)

Event Time Altitude Azimuth Distance (km) Brightness Sun altitude
Rises 05:10:01 0° 165° (SSE) 3,223 8.0 -13.0°
Reaches altitude 10° 05:12:18 10° 166° (SSE) 2,301 7.2 -12.5°
Maximum altitude 05:17:23 87° 255° (WSW) 775 4.5 -11.6°
Drops below altitude 10° 05:22:31 10° 346° (NNW) 2,319 6.8 -10.7°
Sets 05:24:50 0° 347° (NNW) 3,252 7.5 -10.2°
